Regional Weather Roundup
Issued by NWS

Home | Current Version | Previous Version | Text Only | Print | Product List | Glossary On
Versions: 1 2 3 4 5 6 7 8 9 10 11 12 13 14 15 16 17 18 19 20 21 22 23 24 25 26 27 28 29 30 31 32 33 34 35 36 37 38 39 40 41 42 43 44 45 46 47 48 49 50
000
ASUS46 KSTO 092104
RWRCA

NORTHERN AND CENTRAL CA REGIONAL WEATHER ROUNDUP
NATIONAL WEATHER SERVICE SACRAMENTO CA
100 PM PST TUE FEB 09 2016

NOTE: FAIR INDICATES FEW OR NO CLOUDS BELOW 12,000 FEET WITH NO
SIGNIFICANT WEATHER AND/OR OBSTRUCTIONS TO VISIBILITY.

CAZ001-003-092200-
NORTHWEST AREA

CITY           SKY/WX    TMP DP  RH WIND       PRES   REMARKS
CRESCENT CITY  CLOUDY    63  47  55 S10       30.19R
UKIAH          MOSUNNY   70  43  37 CALM      30.17F
$$

CAZ006-505>513-092200-
BAY AREA

CITY           SKY/WX    TMP DP  RH WIND       PRES   REMARKS
SANTA ROSA     PTSUNNY   67  52  58 SW3       30.16F
SAN RAFAEL     N/A       64  MM  MM MISG
NAPA           MOSUNNY   70  50  49 E21G32    30.13F
CONCORD        PTSUNNY   69  49  48 E10       30.17F
OAKLAND CITY   N/A       67  MM  MM MISG
OAKLAND        PTSUNNY   66  48  52 S8        30.14F
SAN FRAN CITY  N/A       68  MM  46 MISG
SAN FRAN ARPT  PTSUNNY   64  51  62 E7        30.14F
LIVERMORE      MOSUNNY   67  50  54 NE13      30.17F
HAYWARD        MOSUNNY   69  48  47 SW3       30.14F
REDWOOD CITY   N/A       MM  MM  MM MISG
MOFFETT ARPT   MOSUNNY   70  52  52 N6        30.15F
SAN JOSE ARPT  PTSUNNY   72  44  36 CALM      30.14F
$$
CAZ034-037-514>518-092200-
CENTRAL COAST

CITY           SKY/WX    TMP DP  RH WIND       PRES   REMARKS
WATSONVILLE    MOSUNNY   78  49  35 E5        30.14F
SALINAS        MOSUNNY   76  44  32 E14       30.12F
MONTEREY       MOSUNNY   78  37  22 CALM      30.13F
SAN LUIS OBISP MOSUNNY   84  44  24 W3        30.12F
SANTA MARIA    MOSUNNY   83  43  24 VRB3      30.13F
$$
CAZ015-016-092200-
NORTHERN SACRAMENTO VALLEY

CITY           SKY/WX    TMP DP  RH WIND       PRES   REMARKS
REDDING        MOSUNNY   72  43  35 CALM      30.20F
RED BLUFF      SUNNY     71  39  31 NW5       30.21F
OROVILLE       MOSUNNY   67  51  56 CALM      30.21F
$$
CAZ016>018-092200-
SOUTHERN SACRAMENTO VALLEY

CITY           SKY/WX    TMP DP  RH WIND       PRES   REMARKS
AUBURN         PTSUNNY   70  43  37 CALM      30.24F
BEALE AFB      PTSUNNY   69  44  41 VRB3      30.18F
LINCOLN        FAIR      68  43  40 W6        30.19F
MARYSVILLE     MOSUNNY   70  43  37 N5        30.20F
PLACERVILLE    FAIR      70  32  24 CALM      30.26F
SAC INTL ARPT  PTSUNNY   67  50  54 VRB5      30.20F
MATHER AIRPORT SUNNY     72  43  35 CALM      30.19F
DOWNTOWN SAC   N/A       69  MM  MM MISG
SAC EXEC ARPT  MOSUNNY   70  46  42 N5        30.20F
VACAVILLE      MOSUNNY   70  50  49 VRB3      30.20F
TRAVIS AFB     MOSUNNY   68  53  60 NE13      30.17F
$$
CAZ019>021-092200-
SAN JOAQUIN VALLEY

CITY           SKY/WX    TMP DP  RH WIND       PRES   REMARKS
STOCKTON       MOSUNNY   66  48  52 CALM      30.19F
MODESTO        MOSUNNY   68  50  52 CALM      30.20F
MERCED         SUNNY     66  51  58 VRB3      30.19F
LEMOORE        MOSUNNY   70  47  43 VRB3      30.21F
FRESNO         MOSUNNY   71  44  37 CALM      30.20F
HANFORD        SUNNY     70  52  52 CALM      30.21F
PORTERVILLE    SUNNY     75  44  33 CALM      30.20F
BAKERSFIELD    SUNNY     75  45  34 N7        30.18F
$$
CAZ011-012-071-092200-
NORTHERN MOUNTAINS

CITY           SKY/WX    TMP DP  RH WIND       PRES   REMARKS
YREKA          MOSUNNY   58  36  43 CALM      30.27F
MOUNT SHASTA   MOSUNNY   65  34  31 CALM      30.28F
ALTURAS        MOSUNNY   60  35  39 S13       30.33F
$$
CAZ011-012-071-092200-
SIERRA NEVADA MTNS

CITY           SKY/WX    TMP DP  RH WIND       PRES   REMARKS
BLUE CANYON    MOSUNNY   64  21  19 S3        30.37F
TRUCKEE        SUNNY     46  28  49 CALM      30.42F
TAHOE VLY ARPT SUNNY     49  27  42 NE9       30.41F
MAMMOTH LAKES  FAIR      52  27  37 SE5       30.47F
$$



USA.gov is the U.S. government's official web portal to all federal, state and local government web resources and services.